THORAD AGENA D DEB, 5066

Orbit data source: Space-Track

THORAD AGENA D DEB, 5066 is space debris in SSO originally from a launch on Wed, 08 Apr 1970 UTC launched from the Air Force Western Test Range (AFWTR). Debris objects in space refer to the collection of defunct objects orbiting the Earth. Examples of debris include non-operational satellites, rocket bodies, and fragments generated from explosions, collisions, or faulty payload assembly.

Loading next visibility...
Identifier
5066, 1970-025JL
Orbit
SSO
Country
Flag of USUS
Related business
Manufacturer
Unknown
Mission
Spacecraft
Bus & Motor
Unknown
Mass
Unknown
Launch date (UTC)
1970-04-08 (56 years ago)
Launch vehicle
Unknown
Launch site
Air Force Western Test Range (AFWTR)
Object type
Payload
Rocket body
Debris
Shape & HBR
Unknown shape, 0.1 m
Radar Cross Section
Small (<0.1 m²)

Expand to show TLE details & history
Last TLE update: 16 hours ago

TLE from 16 hours ago
0 THORAD AGENA D DEB
1 05066U 70025JL  25348.55881568  .00001066  00000-0  70302-3 0  9997
2 05066  99.8851 201.4253 0065584 269.5391  89.8257 14.03283508814768
Epoch: 2025-12-14T13:24Z
TLE epoch observation values (Epoch: 2025-12-14T13:24:41.674Z)
Latitude
-0.00004°
Longitude
-83.21834°
Altitude
885.466 km
Speed
7.409 km/s
True Right ascension
13h 25m 42s
True Declination
0° 00' 00"
Sunlit
Object was in daylight at epoch
Visualization orbit readout
Latitude
Unknown
Longitude
Unknown
Altitude
Unknown
Speed
Unknown
Apparent Right ascension
Unknown
Apparent Declination
Unknown
Sunlit
N/A
Visualization observer readout
Local Sidereal Time
04:05:54
Azimuth
Unknown
Elevation
Unknown
Doppler factor
Unknown
Orbital elements
Apogee altitude
927.287 km
Perigee altitude
832.088 km
Semi-major axis
7,257.824 km
Eccentricity
0.00656
Inclination
99.8851°
RAAN
201.4253°
Arg. of periapsis
269.5391°
True anomaly
90.57723°
Mean anomaly
89.8257°
Eccentric anomaly
90.20147°
Mean motion
3.51021 °/min
Orbital period
102.56 mins
BSTAR
0.00070302
Loading maneuver chart data...
Computing Atmospheric mass density...

Documentation

Showing up to 5 results
|